sat.trackr.live / text

‹ back to catalog

STARLINK-34188

NORAD 64183 · 2025-113P

PAYLOAD ACTIVE UNKNOWN

§ Identity

Operator
Country
US
Launch date
2025-05-28
Launch site
AFETR
Launch vehicle
Mass (kg)
RCS (m²)

Purposes: comms

External: N2YO · Heavens-Above · Gunter

§ Orbital elements

Epoch: 2026-09-20T23:14:39.939648Z

Period
94.01 min
Inclination
53.1581°
Eccentricity
0.0001767
Mean motion
15.31713033 rev/d
Perigee alt
469.5 km
Apogee alt
471.9 km
Semi-major
6,848.8 km
B*
4.0245e-4
RAAN
262.6360°
Arg perigee
87.5328°
Mean anomaly
272.5876°
Rev number
7,498

§ Raw data

STARLINK-341881 64183U 25113P   26263.96851782  .00012149  00000+0  40245-3 0  99932 64183  53.1581 262.6360 0001767  87.5328 272.5876 15.31713033 74988

JSON: /api/v1/satellites/64183 · /tle

For live sub-satellite position, see the globe view (requires WebGL).

§ Visibility from observer

Set your observer location to see the next 7 days of passes ≥ 10°. The values pass through the URL so the page stays shareable.

No JS? Fill the form by hand. The geolocation button needs JavaScript.